Location: Nitra
(0.0000°N, 18.0833°E)
Time: 00:36:46
(UTC+02:00)

FUSE - Visible Passes

Search period start: 06 May 2021 00:00
Search period end: 16 May 2021 00:00
Orbit: 742 x 756 km, 25.0° (Epoch: 05 May)

Date Brightness Start Highest point End Pass type
(mag) Time Alt. Az. Time Alt. Az. Time Alt. Az.
06 May 4.9 20:38:17 10° W 20:42:55 36° SSW 20:42:55 36° SSW visible
07 May 5.5 05:36:38 14° SSW 05:40:12 26° SSE 05:44:41 10° E visible
07 May 4.6 19:51:17 10° W 19:56:23 46° SSW 19:59:12 24° SE visible
08 May 5.6 04:52:54 21° SSE 04:53:23 21° SSE 04:57:26 10° ESE visible
08 May 4.3 19:04:23 10° WNW 19:09:37 59° SSW 19:14:52 10° SE visible
08 May 6.1 20:52:46 10° WSW 20:55:11 16° SW 20:55:11 16° SW visible
09 May 6.5 04:09:10 13° SE 04:09:10 13° SE 04:10:02 10° ESE visible
09 May 4.3 05:48:54 16° SW 05:53:04 61° SSE 05:58:22 10° ENE visible
09 May 5.7 20:05:22 10° WSW 20:09:18 21° SSW 20:11:26 16° S visible
10 May 4.5 05:05:10 41° S 05:06:17 48° SSE 05:11:27 10° E visible
10 May 5.5 19:18:06 10° W 19:22:29 25° SSW 19:26:52 10° SSE visible
11 May 5.6 04:21:25 28° ESE 04:21:25 28° ESE 04:24:27 10° E visible
11 May 4.3 06:01:09 13° WSW 06:05:50 55° NNW 06:11:06 10° NE visible
12 May 4.0 05:17:22 43° W 05:19:04 71° NNW 05:24:25 10° ENE visible
12 May 6.2 19:33:33 10° SW 19:35:35 12° SSW 19:37:36 10° S visible
13 May 4.5 04:33:35 54° ENE 04:33:35 54° ENE 04:37:40 10° ENE visible
13 May 5.5 06:14:26 10° WNW 06:18:43 24° NNW 06:23:00 10° NNE visible
14 May 6.5 03:49:45 16° ENE 03:49:45 16° ENE 03:50:52 10° ENE visible
14 May 5.2 05:29:28 21° WNW 05:31:54 30° NNW 05:36:32 10° NE visible
15 May 4.9 04:45:37 36° NNW 04:45:37 36° NNW 04:50:01 10° NE visible
